Location: Easthampton
(42.2676°N, 72.6690°W)
Time: 19:42:08
(UTC+00:00)

ISS - Visible Passes

Search period start: 27 November 2022 00:00
Search period end: 07 December 2022 00:00
Orbit: 411 x 421 km, 51.6° (Epoch: 27 November)

Date Brightness Start Highest point End Pass type
(mag) Time Alt. Az. Time Alt. Az. Time Alt. Az.
27 Nov -1.6 23:06:09 10° NW 23:07:53 16° N 23:07:53 16° N visible
28 Nov -1.7 22:17:19 10° NW 22:19:30 16° N 22:21:10 12° NNE visible
29 Nov -1.8 23:05:35 10° NW 23:07:21 19° N 23:07:21 19° N visible
30 Nov -1.9 22:16:53 10° NW 22:19:16 18° N 22:20:41 14° NE visible
30 Nov -0.7 23:53:20 10° NW 23:53:34 12° NW 23:53:34 12° NW visible
01 Dec -2.5 23:04:42 10° NW 23:06:58 29° N 23:06:58 29° N visible
02 Dec -2.5 22:16:03 10° NW 22:18:52 25° NNE 22:20:26 17° ENE visible
02 Dec -1.0 23:52:31 10° WNW 23:53:21 16° WNW 23:53:21 16° WNW visible
03 Dec -3.9 23:03:44 10° NW 23:06:56 70° N 23:06:56 70° N visible
04 Dec -3.4 22:15:00 10° NW 22:18:12 44° NNE 22:20:43 15° E visible
04 Dec -1.1 23:52:00 10° W 23:53:38 20° WSW 23:53:38 20° WSW visible
05 Dec -2.6 23:02:53 10° WNW 23:06:03 42° SW 23:07:41 23° SSE visible
06 Dec -3.6 22:13:56 10° WNW 22:17:15 75° SW 22:20:34 10° SE visible
